Liberty, Kansas
Current Conditions -  °F | °C
As of 12:20 PM on Thursday 18 Dec 2014 (Local Time) from KCFV Reporting Station
Haze Haze  
Wind Chill: 37°   Ceiling: 200
Heat Index: 37°   Visibility: 2mi
Dew Point: 36°   Wind: 0mph
Humidity: 96%   Direction: NA
Pressure: 30.19"   Gusts: NA
Location:  37.16°N, 95.59°W
Report Text: KCFV 181820Z AUTO 00000KT 2SM BR BKN002 OVC006 03/02 A3019 RMK AO2 T00280022
Loading
Personal Weather Stations






























Interactive Weather Map New forecast layout! Learn more

10-Day Weather Forecast

Advertisements
Track Severe Weather on mobile